Flag for Fiji Weather past 2 weeks in Lautoka, Fiji

Now
70 °F

Light rain. Partly cloudy.


Feels Like: 70 °F
Forecast: 70 / 74 °F
Wind: 12 mph from Southeast

Location: Nandi

Current Time: Aug 3, 2015 at 11:48:38 PM

Latest Report: Aug 3, 2015 at 11:00 PM


Visibility: N/A

Pressure: 29.92 "Hg

Humidity: 83%

Dew point: 64 °F

Location of LautokaLocation

Historic Weather in Lautoka — Graph

°F

Lautoka temperature yesterday

Maximum temperature yesterday: 75 °F (at 10:00 AM)
Minimum temperature yesterday: 66 °F (at 3:00 AM)
Average temperature yesterday: 70 °F

Past Weeks' High & Low Weather Summary

 TemperatureHumidityPressure
High84 °F (Jul 20, 4:00 PM)100% (Jul 26, 4:00 AM)30.15 "Hg (Jul 26, 4:00 AM)
Low61 °F (Jul 26, 4:00 AM)40% (Jul 26, 1:00 PM)29.83 "Hg (Jul 31, 3:00 PM)
Average72 °F74%30.00 "Hg
* Reported Jul 19 11:00 PM — Aug 3 11:00 PM, Lautoka, Weather by CustomWeather, © 2015

Note: Actual official high and low records may vary slightly from our data, if they occured in-between our weather recording intervals... More about our weather records

Advertising

Lautoka weather history for previous 24 hours

 ConditionsComfort  
Time TempWeatherWind HumidityBarometerVisibility
11:00 PM
Mon, Aug 3
70 °FLight rain. Partly cloudy.12 mph83%29.92 "HgN/A
10:00 PM70 °FPartly cloudy.13 mph78%29.92 "HgN/A
9:00 PM70 °FLight rain. Partly cloudy.10 mph83%29.95 "HgN/A
8:00 PM70 °FPartly cloudy.10 mph78%29.92 "HgN/A
7:00 PM72 °FMostly cloudy.9 mph73%29.89 "HgN/A
6:00 PM70 °FLight rain. Mostly cloudy.7 mph83%29.89 "HgN/A
5:00 PM75 °FLight rain. More clouds than sun.10 mph65%29.89 "HgN/A
4:00 PM77 °FLight rain. Broken clouds.14 mph57%29.86 "HgN/A
3:00 PM75 °FBroken clouds.15 mph65%29.89 "HgN/A
2:00 PM77 °FBroken clouds.15 mph61%29.92 "HgN/A
1:00 PM77 °FBroken clouds.15 mph61%29.92 "HgN/A
12:00 PM75 °FBroken clouds.16 mph65%29.92 "HgN/A
11:00 AM75 °FBroken clouds.12 mph61%29.95 "HgN/A
10:00 AM73 °FBroken clouds.17 mph69%29.95 "HgN/A
9:00 AM72 °FBroken clouds.13 mph73%29.92 "HgN/A
8:00 AM72 °FBroken clouds.12 mph78%29.92 "HgN/A
7:00 AM70 °FBroken clouds.12 mph83%29.92 "HgN/A
6:00 AM70 °FPartly cloudy.8 mph83%29.89 "HgN/A
5:00 AM70 °FLight rain. Partly cloudy.9 mph83%29.89 "HgN/A
4:00 AM70 °FLight rain. Partly cloudy.6 mph83%29.89 "HgN/A
3:00 AM70 °FLight rain. Partly cloudy.9 mph83%29.89 "HgN/A
2:00 AM70 °FLight rain. Partly cloudy.7 mph88%29.92 "HgN/A
1:00 AM70 °FPartly cloudy.3 mph88%29.95 "HgN/A
12:00 AM70 °FLight rain. Partly cloudy.No wind88%29.95 "HgN/A
11:00 PM
Sun, Aug 2
70 °FPartly cloudy.No wind88%29.95 "HgN/A
Weather by CustomWeather, © 2015

See weather overviewHow to use our weather pages